| time (UTC) | temp F | wind direction | speed MPH | gust MPH | rain 1hr in | rain 24hr in | rain mn in | humidity % | barometer mb |
| 20260508064526 | 55 | 322 | 7.0 | 10.0 | 0.00 | 0.71 | 0.00 | 80 | 1015.2 |
| 20260508063027 | 55 | 296 | 7.0 | 10.0 | 0.00 | 0.71 | 0.00 | 80 | 1015.1 |
| 20260508061529 | 56 | 310 | 6.0 | 9.0 | 0.00 | 0.71 | 0.00 | 81 | 1015.1 |
| 20260508060029 | 56 | 318 | 5.0 | 9.0 | 0.00 | 0.71 | 0.00 | 80 | 1015.2 |
| 20260508054527 | 56 | 309 | 6.0 | 8.0 | 0.00 | 0.95 | 0.00 | 80 | 1015.2 |
| 20260508053026 | 56 | 285 | 6.0 | 8.0 | 0.00 | 0.95 | 0.00 | 81 | 1015.3 |
| 20260508051527 | 56 | 293 | 5.0 | 8.0 | 0.00 | 0.95 | 0.00 | 82 | 1015.3 |
| 20260508050029 | 57 | 288 | 5.0 | 7.0 | 0.00 | 0.95 | 0.00 | 81 | 1015.3 |
| 20260508044530 | 57 | 309 | 4.0 | 8.0 | 0.00 | 1.16 | 0.00 | 80 | 1015.2 |
| 20260508043026 | 57 | 284 | 5.0 | 7.0 | 0.00 | 1.16 | 0.00 | 79 | 1015.0 |
| 20260508041534 | 57 | 294 | 4.0 | 7.0 | 0.00 | 1.16 | 0.00 | 80 | 1015.0 |
| 20260508040030 | 57 | 292 | 4.0 | 7.0 | 0.00 | 1.16 | 0.00 | 80 | 1014.8 |
| 20260508034528 | 58 | 298 | 4.0 | 7.0 | 0.00 | 1.17 | 1.16 | 79 | 1014.9 |
| 20260508033035 | 58 | 286 | 4.0 | 7.0 | 0.00 | 1.17 | 1.16 | 78 | 1014.7 |
| 20260508031526 | 59 | 282 | 5.0 | 8.0 | 0.00 | 1.17 | 1.16 | 76 | 1014.9 |
| 20260508030037 | 59 | 294 | 5.0 | 8.0 | 0.00 | 1.17 | 1.16 | 76 | 1014.7 |
| 20260508024528 | 60 | 309 | 5.0 | 8.0 | 0.00 | 1.17 | 1.16 | 75 | 1014.7 |
| 20260508023039 | 60 | 300 | 5.0 | 8.0 | 0.00 | 1.17 | 1.16 | 74 | 1014.4 |
| 20260508021533 | 60 | 313 | 4.0 | 10.0 | 0.00 | 1.17 | 1.16 | 74 | 1014.1 |
| 20260508020028 | 61 | 313 | 7.0 | 12.0 | 0.00 | 1.17 | 1.16 | 73 | 1014.1 |
| 20260508014533 | 61 | 320 | 7.0 | 11.0 | 0.00 | 1.25 | 1.16 | 72 | 1013.9 |
| 20260508013027 | 62 | 311 | 6.0 | 12.0 | 0.00 | 1.25 | 1.16 | 70 | 1013.7 |
| 20260508011527 | 62 | 327 | 6.0 | 10.0 | 0.00 | 1.25 | 1.16 | 70 | 1013.4 |
| 20260508010039 | 63 | 323 | 7.0 | 15.0 | 0.00 | 1.25 | 1.16 | 69 | 1013.2 |
| 20260508004531 | 63 | 355 | 9.0 | 14.0 | 0.00 | 2.32 | 1.16 | 69 | 1012.9 |
| 20260508003029 | 64 | 329 | 10.0 | 15.0 | 0.00 | 2.32 | 1.16 | 68 | 1012.7 |
| 20260508001534 | 64 | 318 | 7.0 | 14.0 | 0.00 | 2.32 | 1.16 | 68 | 1012.7 |
| 20260508000031 | 65 | 313 | 12.0 | 19.0 | 0.00 | 2.32 | 1.16 | 66 | 1012.1 |
| 20260507234534 | 66 | 300 | 9.0 | 19.0 | 0.00 | 2.33 | 1.16 | 65 | 1011.8 |
| 20260507233028 | 67 | 306 | 11.0 | 22.0 | 0.00 | 2.33 | 1.16 | 64 | 1011.8 |
| 20260507231527 | 68 | 311 | 11.0 | 19.0 | 0.00 | 2.33 | 1.16 | 63 | 1011.6 |
| 20260507230030 | 69 | 355 | 7.0 | 18.0 | 0.00 | 2.33 | 1.16 | 64 | 1011.4 |
| 20260507224547 | 70 | 284 | 16.0 | 24.0 | 0.00 | 2.33 | 1.16 | 62 | 1011.0 |
| 20260507223029 | 71 | 303 | 14.0 | 23.0 | 0.00 | 2.33 | 1.16 | 61 | 1010.9 |
| 20260507221535 | 72 | 297 | 16.0 | 24.0 | 0.00 | 2.33 | 1.16 | 62 | 1010.6 |
| 20260507220032 | 72 | 275 | 12.0 | 25.0 | 0.00 | 2.33 | 1.16 | 63 | 1010.5 |
| 20260507214534 | 72 | 301 | 14.0 | 23.0 | 0.00 | 2.33 | 1.16 | 63 | 1010.1 |
| 20260507213035 | 72 | 272 | 16.0 | 26.0 | 0.00 | 2.33 | 1.16 | 63 | 1010.3 |
| 20260507211527 | 73 | 304 | 13.0 | 22.0 | 0.00 | 2.33 | 1.16 | 65 | 1010.1 |
| 20260507210049 | 73 | 290 | 12.0 | 24.0 | 0.00 | 2.33 | 1.16 | 66 | 1010.1 |
| 20260507204528 | 73 | 278 | 12.0 | 23.0 | 0.00 | 2.33 | 1.16 | 66 | 1009.9 |
| 20260507203028 | 73 | 275 | 16.0 | 26.0 | 0.00 | 2.33 | 1.16 | 64 | 1010.1 |
| 20260507201535 | 74 | 263 | 13.0 | 24.0 | 0.00 | 2.33 | 1.16 | 64 | 1009.7 |
| 20260507200047 | 74 | 281 | 10.0 | 24.0 | 0.00 | 2.33 | 1.16 | 65 | 1009.9 |
| 20260507194526 | 74 | 264 | 14.0 | 24.0 | 0.00 | 2.33 | 1.16 | 64 | 1009.9 |
| 20260507193059 | 74 | 284 | 17.0 | 25.0 | 0.00 | 2.33 | 1.16 | 66 | 1010.2 |
| 20260507191530 | 74 | 327 | 8.0 | 16.0 | 0.00 | 2.33 | 1.16 | 70 | 1010.3 |
| 20260507190033 | 73 | 285 | 9.0 | 17.0 | 0.00 | 2.33 | 1.16 | 71 | 1010.4 |
| 20260507184529 | 72 | 324 | 8.0 | 17.0 | 0.00 | 2.33 | 1.16 | 73 | 1010.7 |
| 20260507183037 | 73 | 302 | 11.0 | 20.0 | 0.00 | 2.33 | 1.16 | 72 | 1010.7 |
| 20260507181528 | 72 | 267 | 10.0 | 18.0 | 0.00 | 2.33 | 1.16 | 75 | 1010.7 |
| 20260507180028 | 72 | 274 | 12.0 | 20.0 | 0.00 | 2.33 | 1.16 | 74 | 1010.8 |
| 20260507174528 | 72 | 281 | 9.0 | 14.0 | 0.00 | 2.33 | 1.16 | 77 | 1010.7 |
| 20260507173027 | 71 | 273 | 10.0 | 14.0 | 0.00 | 2.33 | 1.16 | 78 | 1010.7 |
| 20260507171526 | 71 | 302 | 6.0 | 15.0 | 0.00 | 2.33 | 1.16 | 81 | 1010.6 |
| 20260507170028 | 70 | 321 | 6.0 | 14.0 | 0.00 | 2.33 | 1.16 | 84 | 1010.7 |
| 20260507164526 | 69 | 340 | 8.0 | 13.0 | 0.00 | 2.35 | 1.16 | 86 | 1010.6 |
| 20260507163030 | 68 | 298 | 4.0 | 10.0 | 0.00 | 2.35 | 1.16 | 88 | 1010.9 |
| 20260507161530 | 67 | 229 | 4.0 | 10.0 | 0.00 | 2.35 | 1.16 | 91 | 1010.9 |
| 20260507160053 | 67 | 239 | 6.0 | 10.0 | 0.00 | 2.35 | 1.16 | 94 | 1011.4 |
| 20260507154528 | 66 | 259 | 6.0 | 11.0 | 0.00 | 2.35 | 1.16 | 96 | 1011.3 |
| 20260507153027 | 65 | 244 | 2.0 | 10.0 | 0.00 | 2.35 | 1.16 | 98 | 1011.2 |
| 20260507151530 | 64 | 259 | 3.0 | 10.0 | 0.00 | 2.35 | 1.16 | 98 | 1011.3 |
| 20260507150027 | 64 | 281 | 5.0 | 11.0 | 0.00 | 2.35 | 1.16 | 98 | 1011.5 |
| 20260507144541 | 63 | 270 | 5.0 | 12.0 | 0.00 | 2.35 | 1.16 | 98 | 1012.0 |
| 20260507143032 | 63 | 259 | 5.0 | 10.0 | 0.00 | 2.35 | 1.16 | 98 | 1011.8 |
| 20260507141530 | 63 | 253 | 5.0 | 8.0 | 0.00 | 2.35 | 1.16 | 98 | 1011.2 |
| 20260507140033 | 62 | 204 | 3.0 | 5.0 | 0.01 | 2.35 | 1.16 | 98 | 1011.0 |
| 20260507134526 | 63 | 0 | 0.0 | 0.0 | 0.04 | 2.35 | 1.16 | 98 | 1010.8 |
| 20260507133027 | 62 | 0 | 0.0 | 0.0 | 0.10 | 2.35 | 1.16 | 98 | 1011.0 |
| 20260507131530 | 62 | 0 | 0.0 | 7.0 | 0.12 | 2.35 | 1.16 | 98 | 1011.2 |
| 20260507130031 | 62 | 0 | 0.0 | 7.0 | 0.10 | 2.33 | 1.14 | 98 | 1011.6 |
| 20260507124527 | 62 | 293 | 1.0 | 4.0 | 0.08 | 2.32 | 1.12 | 98 | 1011.8 |
| 20260507123038 | 62 | 325 | 2.0 | 9.0 | 0.03 | 2.26 | 1.05 | 98 | 1011.6 |
| 20260507121527 | 62 | 56 | 3.0 | 6.0 | 0.06 | 2.24 | 1.04 | 98 | 1010.6 |
| 20260507120027 | 62 | 198 | 1.0 | 2.0 | 0.11 | 2.24 | 1.04 | 98 | 1010.9 |
| 20260507114529 | 62 | 0 | 0.0 | 5.0 | 0.18 | 2.24 | 1.04 | 98 | 1011.3 |
| 20260507113030 | 62 | 134 | 1.0 | 6.0 | 0.18 | 2.22 | 1.02 | 98 | 1010.4 |
| 20260507111536 | 62 | 45 | 3.0 | 10.0 | 0.15 | 2.18 | 0.98 | 98 | 1010.8 |
| 20260507110033 | 62 | 37 | 7.0 | 12.0 | 0.09 | 2.11 | 0.92 | 98 | 1011.6 |
| 20260507104528 | 62 | 24 | 3.0 | 5.0 | 0.04 | 2.05 | 0.85 | 98 | 1011.4 |
| 20260507100033 | 62 | 32 | 1.0 | 3.0 | 0.04 | 2.03 | 0.83 | 98 | 1011.2 |
| 20260507094531 | 62 | 355 | 2.0 | 6.0 | 0.02 | 2.01 | 0.81 | 98 | 1011.1 |
| 20260507093040 | 62 | 285 | 3.0 | 6.0 | 0.01 | 1.99 | 0.79 | 98 | 1011.6 |
| 20260507084531 | 62 | 255 | 2.0 | 4.0 | 0.11 | 1.99 | 0.79 | 98 | 1011.5 |
| 20260507083030 | 62 | 0 | 0.0 | 2.0 | 0.14 | 1.98 | 0.78 | 97 | 1010.7 |
| 20260507081535 | 62 | 186 | 1.0 | 3.0 | 0.18 | 1.95 | 0.75 | 97 | 1011.8 |
| 20260507080027 | 62 | 0 | 1.0 | 6.0 | 0.20 | 1.93 | 0.73 | 97 | 1011.6 |
| 20260507074529 | 62 | 325 | 3.0 | 5.0 | 0.18 | 1.88 | 0.68 | 98 | 1012.5 |
| 20260507073029 | 62 | 245 | 2.0 | 5.0 | 0.15 | 1.84 | 0.64 | 98 | 1012.1 |
| 20260507071529 | 62 | 248 | 3.0 | 6.0 | 0.09 | 1.77 | 0.57 | 98 | 1012.2 |
| 20260507070030 | 62 | 317 | 2.0 | 7.0 | 0.08 | 1.73 | 0.52 | 98 | 1012.5 |